Regional Weather Roundup
Issued by NWS

Home | Current Version | Previous Version | Graphics & Text | Print | Product List | Glossary On
Versions: 1 2 3 4 5 6 7 8 9 10 11 12 13 14 15 16 17 18 19 20 21 22 23 24 25 26 27 28 29 30 31 32 33 34 35 36 37 38 39 40 41 42 43 44 45 46 47 48 49 50
000
ASUS44 KMEG 200000
RWRTN
TENNESSEE HOURLY STATE WEATHER ROUNDUP
NATIONAL WEATHER SERVICE MEMPHIS TN
700 PM CDT TUE AUG 19 2014

TNZ002-004-019-021-049-052-054-088>092-200100-
WEST TENNESSEE

CITY           SKY/WX    TMP DP  RH WIND       PRES   REMARKS
MEMPHIS INTL   PTCLDY    90  75  61 SW6       29.85S HX 100
NWS MEMPHIS      N/A     89 N/A N/A MISG        N/A
JACKSON        CLEAR     85  76  74 CALM      29.86R HX  94
DYERSBURG      CLEAR     86  68  54 CALM      29.85R
UNION CITY     CLEAR     84  75  74 SW5       29.84R HX  92
PARIS          CLEAR     82  73  74 SW6       29.86S
LEXINGTON      CLEAR     86  73  66 SW3       29.87R HX  93
SAVANNAH       CLEAR     88  75  66 S6        29.88R HX  97
$$

TNZ008-025-027-028-033-062-065-066-200100-
NORTH MIDDLE TENNESSEE

CITY           SKY/WX    TMP DP  RH WIND       PRES   REMARKS
NASHVILLE      MOCLDY    85  72  65 SW6       29.87R HX  91
CLARKSVILLE    MOCLDY    86  73  65 SW7       29.83F HX  93
COOKEVILLE     CLEAR     84  75  74 CALM      29.90R HX  92
CROSSVILLE     CLEAR     76  69  79 SW3       29.96R
$$

TNZ061-075-076-078-094-096-097-200100-
SOUTH MIDDLE TENNESSEE

CITY           SKY/WX    TMP DP  RH WIND       PRES   REMARKS
FAYETTEVILLE   CLEAR     82  72  69 SW5       29.91S
TULLAHOMA      CLEAR     82  72  69 SW3       29.92S
WINCHESTER     PTCLDY    84  73  70 CALM      29.92R HX  91
SHELBYVILLE    CLEAR     84  75  74 S3        29.90R HX  92
$$

TNZ017-018-042-046-047-200100-
NORTHEAST TENNESSEE

CITY           SKY/WX    TMP DP  RH WIND       PRES   REMARKS
TRI CITIES     PTCLDY    80  66  62 W6        29.92R
ELIZABETHTON   CLEAR     72  68  88 CALM      29.93R
$$

TNZ012-013-036-069-073-074-200100-
CENTRAL EAST TENNESSEE

CITY           SKY/WX    TMP DP  RH WIND       PRES   REMARKS
KNOXVILLE      MOCLDY    80  68  66 VRB5      29.90R THUNDER
OAK RIDGE      LGT RAIN  78  69  73 E3        29.93R
GATLINBURG     MOCLDY    81  66  61 W5        29.91R
$$

TNZ083-085-099-200100-
SOUTHEAST TENNESSEE

CITY           SKY/WX    TMP DP  RH WIND       PRES   REMARKS
CHATTANOOGA    PTCLDY    87  68  52 W3        29.90R HX  90
$$

SKY/WX REPORTED AS FAIR MEANS FEW OR NO CLOUDS BELOW
12 THOUSAND FEET.




USA.gov is the U.S. government's official web portal to all federal, state and local government web resources and services.